Change the Weather History Date:

Friday, November 29, 2013

  Actual Average Record
Temperature  
Mean Temperature 27 °F 28 °F  
Max Temperature 43 °F 38 °F 63 °F (1998)
Min Temperature 11 °F 18 °F -5 °F (1896)
Degree Days  
Heating Degree Days 38 37  
Month to date heating degree days 870 839  
Since 1 July heating degree days 1395 1439  
Cooling Degree Days 0 0  
Month to date cooling degree days 0 0  
Year to date cooling degree days 960 869  
Moisture  
Dew Point 18 °F    
Average Humidity 67    
Maximum Humidity 88    
Minimum Humidity 45    
Precipitation  
Precipitation 0.00 in 0.04 in 1.69 in (1991)
Month to date precipitation 1.09 1.27  
Year to date precipitation 26.55 26.90  
Snow  
Snow 0.00 in 0.30 in 4.20 in (1919)
Month to date snowfall 0.9 4.2  
Since 1 July snowfall 0.9 5.2  
Since 1 September snowfall 0.9 5.2  
Snow Depth 0.00 in    
Sea Level Pressure  
Sea Level Pressure 30.34 in    
Wind  
Wind Speed 10 mph (SE)    
Max Wind Speed 23 mph    
Max Gust Speed 27 mph    
Visibility 10 miles    
Events      
T = Trace of Precipitation, MM = Missing Value Source: NWS Daily Summary

Daily Weather History Graph

Daily Weather History Graph

Search for Another Location

Airport or City:

Trip Planner

Search our weather history database for the weather conditions in past years. The results will help you decide how hot, cold, wet, or windy it might be!

Date:

Astronomy

Nov. 29, 2013 Rise Set
Actual Time 7:33 AM CST 4:54 PM CST
Civil Twilight 7:02 AM CST 5:25 PM CST
Nautical Twilight 6:27 AM CST 6:00 PM CST
Astronomical Twilight 5:53 AM CST 6:34 PM CST
Moon 3:36 AM CST (11/29) 2:43 PM CST (11/29)
Length of Visible Light 10h 23m
Length of Day
9h 21m
Waning Crescent, 14% of the Moon is Illuminated
Nov 29
Waning Crescent
Dec 2
New
Dec 9
First Quarter
Dec 17
Full
Dec 25
Last Quarter

Hourly Weather History & Observations

Time (CST) Temp. Windchill Dew Point Humidity Pressure Visibility Wind Dir Wind Speed Gust Speed Precip Events Conditions
12:52 AM 14.0 °F 5.1 °F 10.0 °F 84% 30.53 in 10.0 mi ESE 5.8 mph - N/A   Clear
1:52 AM 12.9 °F 2.6 °F 9.0 °F 84% 30.52 in 10.0 mi ESE 6.9 mph - N/A   Clear
2:52 AM 12.9 °F 3.8 °F 9.0 °F 84% 30.53 in 10.0 mi ESE 5.8 mph - N/A   Clear
3:52 AM 12.0 °F 1.5 °F 8.1 °F 84% 30.51 in 10.0 mi ESE 6.9 mph - N/A   Clear
4:52 AM 12.9 °F 0.7 °F 9.0 °F 84% 30.50 in 10.0 mi ESE 9.2 mph - N/A   Clear
5:52 AM 16.0 °F 2.9 °F 10.9 °F 81% 30.48 in 10.0 mi SE 11.5 mph - N/A   Clear
6:52 AM 15.1 °F 2.5 °F 10.9 °F 84% 30.48 in 10.0 mi SSE 10.4 mph - N/A   Clear
7:52 AM 15.1 °F 3.3 °F 10.9 °F 84% 30.47 in 10.0 mi SE 9.2 mph - N/A   Clear
8:52 AM 21.0 °F 9.3 °F 16.0 °F 81% 30.46 in 10.0 mi SSE 11.5 mph - N/A   Clear
9:52 AM 26.1 °F 15.6 °F 19.0 °F 75% 30.44 in 10.0 mi SSE 11.5 mph - N/A   Clear
10:52 AM 30.9 °F 21.2 °F 19.0 °F 61% 30.42 in 10.0 mi SSE 12.7 mph 18.4 mph N/A   Clear
11:52 AM 34.0 °F 24.2 °F 19.9 °F 56% 30.38 in 10.0 mi South 15.0 mph - N/A   Clear
12:52 PM 37.0 °F 28.5 °F 21.0 °F 52% 30.32 in 10.0 mi South 13.8 mph - N/A   Clear
1:52 PM 39.0 °F 29.9 °F 21.9 °F 50% 30.27 in 10.0 mi SSE 17.3 mph - N/A   Clear
2:52 PM 42.1 °F 33.3 °F 23.0 °F 47% 30.23 in 10.0 mi SSE 19.6 mph - N/A   Clear
3:52 PM 41.0 °F 33.1 °F 24.1 °F 51% 30.22 in 10.0 mi South 15.0 mph - N/A   Clear
4:52 PM 39.0 °F 30.6 °F 24.1 °F 55% 30.19 in 10.0 mi SSE 15.0 mph - N/A   Clear
5:52 PM 36.0 °F 31.1 °F 24.1 °F 62% 30.20 in 10.0 mi SE 5.8 mph - N/A   Clear
6:52 PM 30.9 °F 23.5 °F 21.9 °F 69% 30.20 in 10.0 mi SSE 8.1 mph - N/A   Clear
7:52 PM 33.1 °F 24.4 °F 24.1 °F 70% 30.19 in 10.0 mi SSE 11.5 mph - N/A   Clear
8:52 PM 34.0 °F 26.6 °F 25.0 °F 70% 30.18 in 10.0 mi SE 9.2 mph - N/A   Clear
9:52 PM 32.0 °F 24.8 °F 24.1 °F 73% 30.17 in 10.0 mi SE 8.1 mph - N/A   Clear
10:52 PM 28.0 °F 21.7 °F 23.0 °F 81% 30.16 in 10.0 mi SE 5.8 mph - N/A   Clear
11:52 PM 26.1 °F 19.4 °F 21.9 °F 84% 30.14 in 10.0 mi ESE 5.8 mph - N/A   Clear